HST 1 20580U 90037B 24316.73827887 .00013869 00000-0 59817-3 0 9990 2 20580 28.4681 74.4250 0002086 192.3629 167.6914 15.21030499699750 ISS (ZARYA) 1 25544U 98067A 24317.24127085 .00019805 00000-0 33684-3 0 9996 2 25544 51.6380 301.8966 0008444 165.9795 194.1431 15.51387213481518 CXO 1 25867U 99040B 24318.59143727 .00000691 00000-0 00000-0 0 9992 2 25867 44.5231 142.0444 8730833 303.9002 0.2087 0.37812291 15126